Your browser is no longer supported. Please, upgrade your browser.
Filter
Ticker Owner Relationship Date Transaction Cost #Shares Value ($) #Shares Total SEC Form 4
TUPPARKER DAVID RDirectorMay 22Option Exercise0.002,360029,439May 24 02:54 PM
FLWSMCCANN CHRISTOPHER GCEO and PresidentMay 22Option Exercise1.7912,50022,375943,328May 24 02:44 PM
FLWSMCCANN CHRISTOPHER GCEO and PresidentMay 23Option Exercise1.7912,50022,375943,328May 24 02:44 PM
FLWSMCCANN CHRISTOPHER GCEO and PresidentMay 23Sale17.9312,500224,125930,828May 24 02:44 PM
FLWSMCCANN CHRISTOPHER GCEO and PresidentMay 22Sale18.0612,500225,750930,828May 24 02:44 PM
CINFCracas Teresa CSr VP, Chief Risk Off. - SubMay 22Option Exercise39.036,498253,60430,319May 24 02:44 PM
NRIMNelson Krystal MurphyDirectorMay 23Buy33.8360020,2992,960May 24 02:38 PM
EMCFCROOKS JAMES MDirectorMay 23Buy31.55942,96629,294May 24 02:37 PM
FTHORNTON JOHN LDirectorMay 23Buy9.8110,200100,038197,290May 24 02:36 PM
COHUJones Jeffrey DVP Finance & CFOMay 23Buy14.354,00057,400206,547May 24 02:34 PM
EVBNNASCA DAVID JPresident and CEOMay 24Option Exercise12.9910,941142,12470,788May 24 02:29 PM
PSBRUSSELL JOSEPH D JRDirectorMay 23Sale162.682,000325,36753,285May 24 02:28 PM
RVPSHAW THOMAS JPresident and CEOMay 23Buy0.652,0001,30414,171,093May 24 02:26 PM
EMCFMcCarrier Deanna KDirectorMay 23Buy31.703149,95420,659May 24 02:24 PM
NLYDENAHAN WELLINGTONDirectorMay 23Option Exercise0.0012,85801,811,272May 24 02:16 PM
NLYFallon Katherine BeirneDirectorMay 23Option Exercise0.0012,858012,858May 24 02:12 PM
CWSTCALLAHAN JAMES F JRDirectorMay 23Sale38.535,000192,62565,736May 24 02:06 PM
CWSTCALLAHAN JAMES F JRDirectorMay 23Sale38.515,000192,55049,789May 24 02:06 PM
PPGHAYNES VICTORIA FDirectorMay 24Sale107.1667472,2630May 24 02:05 PM
SCLRojo LuisVP & Chief Financial OfficerMay 22Buy86.6430025,9921,900May 24 02:00 PM
EPAMShekhter ElainaSVP, Chief Marketing OfficerMay 23Sale171.237,8011,335,7657,659May 24 01:55 PM
COMMMcClelland Bruce WilliamEVP & COOMay 22Buy18.003,50063,00081,483May 24 01:43 PM
JAGHoward Robert WilliamEVP, CFOMay 22Sale10.474004,1882,290,445May 24 01:38 PM
SYBTTASMAN NORMANDirectorMay 23Buy34.74903,12566,552May 24 01:26 PM
SYBTSchutte JohnDirectorMay 23Buy34.74903,1251,112May 24 01:23 PM
SYBTPriebe Stephen MDirectorMay 23Buy34.74903,12515,607May 24 01:21 PM
SYBTHerde Carl GDirectorMay 23Buy34.74451,56323,151May 24 01:17 PM
SYBTHeitzman Donna LDirectorMay 23Buy34.74903,1254,292May 24 01:13 PM
SYBTBrown J McCauleyDirectorMay 23Buy34.74451,5632,255May 24 01:09 PM
SPKEMaxwell W Keith IIIDirectorMay 22Buy10.5530,010316,6062,410,694May 24 01:08 PM
ADCErlich CraigDirectorMay 22Buy67.4775050,60313,023May 24 01:07 PM
SYBTBickel Paul J IIIDirectorMay 23Buy34.74903,1252,378May 24 01:04 PM
WABKASSLING WILLIAM EDirectorMay 23Buy62.948,000503,5201,026,654May 24 12:51 PM
GLTDEBENEDICTIS NICHOLASDirectorMay 22Buy15.252,00030,50084,365May 24 12:37 PM
GLTDEBENEDICTIS NICHOLASDirectorMay 23Buy14.903,00044,70087,365May 24 12:37 PM
GLTDEBENEDICTIS NICHOLASDirectorMay 24Buy14.801,00014,80088,365May 24 12:37 PM
CTSHHumphries BrianChief Executive OfficerMay 23Buy61.0919,0001,160,74219,000May 24 12:27 PM
SMRTLEGLER MITCHELL WDirectorMay 23Sale0.983,0002,928245,489May 24 12:21 PM
CBANBagwell LeeExecutive VPMay 15Buy17.202395,579May 24 12:15 PM
CBANHoyle M. Edward Jr.Regional Marketing ExecutiveMay 15Buy17.20193327,074May 24 12:10 PM
TGTPotts Janna A.Executive OfficerMay 23Sale79.008,759691,96127,720May 24 12:07 PM
CBANROSS ROBERT SIDNEY10% OwnerMay 15Buy17.20239522May 24 12:01 PM
TPLHORIZON KINETICS ASSET MANAGEM10% OwnerMay 23Buy792.093628,515297,184May 24 11:46 AM
FCAPHUBER DANA L.DirectorMay 23Buy50.001,00050,0008,195May 24 11:38 AM
EGYBounds Cary MChief Executive Officer & COOMay 22Buy1.686,00010,080470,095May 24 11:24 AM
KYNBaker James CPresidentMay 22Buy15.8340,000633,200278,437May 24 11:24 AM
TSTEPHENSON RANDALL LChairman, CEO and PresidentMay 23Option Exercise25.0335,291883,4751,208,125May 24 11:19 AM
TSTEPHENS JOHN JOSEPHSr. Exec. VP and CFOMay 23Option Exercise24.6316,973418,045451,157May 24 11:16 AM
ISNSDaly Joseph PatrickDirectorMay 23Buy5.304,00021,2005,070May 24 11:11 AM
MORNMansueto Joseph DExecutive ChairmanMay 22Sale136.4110,6791,456,77422,040,645May 24 10:56 AM
MORNMansueto Joseph DExecutive ChairmanMay 23Sale135.403,806515,35022,036,839May 24 10:56 AM
MRCYASLETT MARKPresident and CEOMay 23Sale68.1010,000681,010342,440May 24 10:11 AM
DLTRSAUNDERS THOMAS ADirectorMay 23Option Exercise77.204,563352,2632,403,365May 24 10:03 AM
CNBKAFiller James J10% OwnerApr 10Buy77.251007,725689,237May 24 09:53 AM
CNBKAFiller James J10% OwnerApr 15Buy87.0320017,405689,437May 24 09:53 AM
CNBKAFiller James J10% OwnerApr 22Buy89.8720017,975689,637May 24 09:53 AM
CNBKAFiller James J10% OwnerApr 26Buy91.40222,011689,659May 24 09:53 AM
CNBKAFiller James J10% OwnerApr 29Buy90.801009,080689,759May 24 09:53 AM
CNBKAFiller James J10% OwnerMay 16Buy91.801009,180689,859May 24 09:53 AM
CNBKAFiller James J10% OwnerMay 22Buy90.9020018,180690,059May 24 09:53 AM
LXFRGardella JamesPresident, Luxfer MagtechMay 22Option Exercise10.0014,400144,00056,801May 24 09:40 AM
BLPHWang Theodore TDirectorMay 22Buy0.6027,50016,533534,479May 24 09:30 AM
FLXNMERRIFIELD C ANNDirectorMay 23Buy12.648,000101,12010,000May 24 09:15 AM
HSYPALMER ANTHONY J.DirectorMay 23Sale130.435,000652,15010,014May 24 09:04 AM
MTDChu Wah-HuiDirectorMay 22Option Exercise90.7670063,5323,554May 24 08:47 AM
MTDChu Wah-HuiDirectorMay 22Sale722.14700505,5002,854May 24 08:47 AM
AFGLINDNER CARL H IIICo-CEO & Co-PresidentMay 22Sale100.5050,0005,025,000343,162May 24 08:32 AM
BRNBarnwell James S IIIDirectorMay 22Buy1.322,0002,64035,726May 24 08:15 AM
TLGTGrenfell-Gardner JasonPresident & CEOMay 23Buy0.6925,00017,335119,849May 24 08:00 AM
TLGTGALE JAMES CDirectorMay 23Buy0.6920,00013,814374,624May 24 08:00 AM
LTSLAMPEN RICHARDCEO, President & ChairmanMay 23Buy3.3410,00033,3993,294,916May 24 07:48 AM
AXSMSaad Mark EDirectorMay 23Buy22.333,50078,1557,002May 24 07:19 AM
OPKFROST PHILLIP MD ET ALCEO & ChairmanMay 23Buy1.92200,000383,80728,822,177May 24 06:53 AM
MIMEMurray NeilDirectorMay 21Option Exercise12.69114,4961,453,2412,396,161May 23 09:33 PM
MIMEMurray NeilDirectorMay 21Sale46.63114,4965,339,2002,281,665May 23 09:33 PM
MIMEMurray NeilDirectorMay 22Sale46.6525,0001,166,2502,256,665May 23 09:33 PM
MIMEBauer PeterChief Executive OfficerMay 22Sale46.8911,250527,48422,250May 23 09:32 PM
MIMEBauer PeterChief Executive OfficerMay 22Sale46.847,500351,3002,212,500May 23 09:32 PM
CCXITyree James LDirectorMay 21Option Exercise0.008,421035,345May 23 09:20 PM
VBTXMorrison Gregory BDirectorMay 21Option Exercise0.001,40704,907May 23 09:15 PM
VBTXFleming Ned N IIIDirectorMay 21Option Exercise0.001,49503,495May 23 09:14 PM
CRMAllanson JoeChief Accounting OfficerMay 22Option Exercise0.00640030,950May 23 09:07 PM
CRMAllanson JoeChief Accounting OfficerMay 23Sale153.5532750,21030,623May 23 09:07 PM
CRMBenioff MarcChairman of the Board & co-CEOMay 23Sale153.665,000768,32131,263,800May 23 09:01 PM
ARRADY PAUL MSee RemarksMay 23Buy6.807,35049,9469,583,483May 23 08:59 PM
CRMHawkins Mark JPresident and CFOMay 22Option Exercise0.002,167021,636May 23 08:59 PM
CRMHawkins Mark JPresident and CFOMay 23Sale153.551,104169,51520,532May 23 08:59 PM
ARWarren Glen C JrSee RemarksMay 23Buy6.8325,600174,91210,176,899May 23 08:59 PM
CRMBLOCK KEITHco-CEOMay 22Option Exercise0.002,068029,570May 23 08:56 PM
CRMBLOCK KEITHco-CEOMay 23Sale153.551,053161,68428,517May 23 08:56 PM
ARHardesty Benjamin A.DirectorMay 22Buy6.901,0006,90050,101May 23 08:55 PM
CRMWeaver Amy EPres., Legal & General CounselMay 22Option Exercise0.00982027,223May 23 08:54 PM
CRMWeaver Amy EPres., Legal & General CounselMay 23Sale153.5450176,92526,722May 23 08:54 PM
CRMTallapragada SrinivasPresident, TechnologyMay 22Option Exercise0.003,199031,002May 23 08:52 PM
CRMTallapragada SrinivasPresident, TechnologyMay 23Sale153.551,629250,12829,373May 23 08:52 PM
CRMHarris ParkerCo-Founder and CTOMay 22Option Exercise0.002,581030,753May 23 08:49 PM
CCXIMCKINNELL HENRY ADirectorMay 21Option Exercise0.008,421052,639May 23 08:49 PM
CRMDayon AlexandrePres. & Chief Product OfficerMay 22Option Exercise0.002,890050,066May 23 08:47 PM
CRMDayon AlexandrePres. & Chief Product OfficerMay 23Sale153.551,472226,02048,594May 23 08:47 PM
CRMRoos John VictorDirectorMay 23Sale155.9111317,61811,358May 23 08:45 PM
CCXIParker Geoffrey M.DirectorMay 21Option Exercise0.008,421067,004May 23 08:42 PM
RIGLSchorno Dean LEVP &Chief Financial OfficerMay 22Buy2.1350,000106,54450,000May 23 08:21 PM
SALMHenderson Christopher JEVP, General Counsel & SecyMay 21Sale2.435,24812,76418,562May 23 08:19 PM
SALMHenderson Christopher JEVP, General Counsel & SecyMay 23Sale2.138461,80017,716May 23 08:19 PM
MLVFKENT HOWARDDirectorMay 21Buy20.0065012,998120,487May 23 07:48 PM
MLVFKENT HOWARDDirectorMay 22Buy19.922,67753,319123,164May 23 07:48 PM
QBAKBRONSON STEVEN NCOB, CEO, PresidentMay 21Buy5.7599569585,281May 23 07:30 PM
QBAKBRONSON STEVEN NCOB, CEO, PresidentMay 23Buy5.721,3107,497586,591May 23 07:30 PM
TPBDiao H.C. CharlesDirectorMay 21Buy50.542,000101,08013,000May 23 07:24 PM
NKTRROBIN HOWARD WPresident & CEOMay 23Option Exercise7.2133,333240,331328,659May 23 07:19 PM
NKTRROBIN HOWARD WPresident & CEOMay 21Option Exercise7.2133,333240,331328,659May 23 07:19 PM
NKTRROBIN HOWARD WPresident & CEOMay 22Option Exercise7.2133,334240,338328,660May 23 07:19 PM
NKTRROBIN HOWARD WPresident & CEOMay 22Sale33.3833,3341,112,689295,326May 23 07:19 PM
NKTRROBIN HOWARD WPresident & CEOMay 21Sale32.9333,3331,097,656295,326May 23 07:19 PM
NKTRROBIN HOWARD WPresident & CEOMay 23Sale32.6933,3331,089,656295,326May 23 07:19 PM
SALMMASYR EVAN DEVP & CFOMay 21Sale2.454,36010,68134,055May 23 07:16 PM
SALMMASYR EVAN DEVP & CFOMay 23Sale2.132,6265,58931,429May 23 07:16 PM
SALMSantrella David PPresident - Broadcast MediaMay 21Sale2.452,1655,30447,996May 23 07:16 PM
SALMSantrella David PPresident - Broadcast MediaMay 23Sale2.131,3082,78446,688May 23 07:16 PM
SREWALL PETER RVP, Controller and CAOMay 23Sale135.4772397,9452,359May 23 07:03 PM
SREHOUSEHOLDER JOSEPH APresident and COOMay 23Sale134.8050,4006,793,85745,791May 23 07:00 PM
HFWAHinson DonaldEVPand Chief Financial OfficerMay 23Option Exercise14.771,33019,64432,159May 23 06:51 PM
CRVLCORSTAR HOLDINGS INC10% OwnerMay 21Sale74.303,949293,4036,757,282May 23 06:48 PM
TWLOHu GeorgeChief Operating OfficerMay 22Sale139.508,5271,189,525190,201May 23 06:46 PM
ANSSSCHERER BARBARA VAUGHNDirectorMay 21Sale186.201,765328,63713,336May 23 06:30 PM
ANSSGALLIMORE ALEC D.DirectorMay 21Sale185.78638118,5283,262May 23 06:30 PM
NBIXBozigian Haig P.Chief Development OfficerMay 22Option Exercise19.591,30025,467143,276May 23 06:27 PM
NBIXBozigian Haig P.Chief Development OfficerMay 22Sale80.031,300104,037141,976May 23 06:27 PM
SITEANKER ROSSEVP, Category Mgmt, Mktg & ITMay 21Option Exercise13.3233,274443,06362,166May 23 06:25 PM
SITEANKER ROSSEVP, Category Mgmt, Mktg & ITMay 21Sale66.6460,3464,021,4571,820May 23 06:25 PM
AMBRPieri NathanChief Product OfficerMay 21Option Exercise8.11121,279984,062121,279May 23 06:24 PM
AMBRPieri NathanChief Product OfficerMay 21Sale12.97121,2791,572,9890May 23 06:24 PM
EPRMater Tonya L.VP & Chief Accounting OfficerMay 23Sale77.871,00077,87230,962May 23 06:17 PM
XRAYLUCIER GREGORY TDirectorMay 23Buy53.6010,000536,04710,000May 23 06:14 PM
URIKNEELAND MICHAELDirectorMay 23Option Exercise53.782,109113,422193,973May 23 06:11 PM
URIKNEELAND MICHAELDirectorMay 20Option Exercise41.2532,0071,320,289223,871May 23 06:11 PM
URIKNEELAND MICHAELDirectorMay 22Option Exercise53.7846,2362,486,572238,100May 23 06:11 PM
URIKNEELAND MICHAELDirectorMay 22Sale125.2646,2365,791,568191,864May 23 06:11 PM
URIKNEELAND MICHAELDirectorMay 20Sale123.6832,0073,958,495191,864May 23 06:11 PM
MNSTKELLY THOMAS JEVP Finance Monster Energy Co.May 21Option Exercise17.1123,370399,85028,740May 23 06:09 PM
WMTWALTON ALICE L10% OwnerMay 21Sale101.06806,82181,535,0309,031,530May 23 06:07 PM
WMTWALTON ALICE L10% OwnerMay 22Sale102.041,322,329134,934,9007,289,201May 23 06:07 PM
WMTWALTON JIM C10% OwnerMay 21Sale101.06806,82181,535,0309,031,530May 23 06:04 PM
WMTWALTON JIM C10% OwnerMay 22Sale102.041,322,329134,934,9007,289,201May 23 06:04 PM
CTLSTOREY JEFFREY KPresident & CEOMay 23Buy9.8350,000491,4803,240,001May 23 06:03 PM
CTLDev IndraneelEVP and CFOMay 23Buy9.8115,000147,155474,153May 23 06:02 PM
WMTWALTON S ROBSONDirectorMay 21Sale101.06806,82181,535,0309,031,530May 23 06:01 PM
WMTWALTON S ROBSONDirectorMay 22Sale102.041,322,329134,934,9007,289,201May 23 06:01 PM
FUNDGEORGE W WHITNEYSenior Portfolio ManagerMay 21Buy6.6724,409162,9131,677,065May 23 06:01 PM
FUNDGEORGE W WHITNEYSenior Portfolio ManagerMay 22Buy6.6920,500137,1985,700,422May 23 06:01 PM
FUNDGEORGE W WHITNEYSenior Portfolio ManagerMay 23Buy6.6018,800124,0185,719,222May 23 06:01 PM
HCCChopin Brian MChief Accounting OfficerMay 13Sale27.418,329228,3275,811May 23 06:01 PM
WLFCHole Brian RichardPRESIDENTMay 22Sale53.5063834,13372,288May 23 05:55 PM
UNMO'Donnell Peter GEVP & CEO, Unum InternationalMay 21Option Exercise23.5597122,86745,758May 23 05:55 PM
ELFSIMMONS SABRINADirectorMay 22Sale12.015,20062,45223,481May 23 05:54 PM
HMSYLUCIA WILLIAM CChairman, President and CEOMay 21Option Exercise16.7729,546495,486172,878May 23 05:51 PM
HMSYLUCIA WILLIAM CChairman, President and CEOMay 22Option Exercise15.1732,036486,100175,368May 23 05:51 PM
HMSYLUCIA WILLIAM CChairman, President and CEOMay 22Sale31.5932,0361,012,017143,332May 23 05:51 PM
HMSYLUCIA WILLIAM CChairman, President and CEOMay 21Sale31.5929,546933,358143,332May 23 05:51 PM
ELFMilsten ScottSee RemarksMay 21Sale12.023,70044,470297,475May 23 05:51 PM
ALKSLANDINE MICHAEL JSVP, Corp Dev., Alkermes, Inc.May 22Option Exercise8.5520,000171,000205,122May 23 05:50 PM
ALKSLANDINE MICHAEL JSVP, Corp Dev., Alkermes, Inc.May 22Sale24.9320,000498,532185,122May 23 05:50 PM
WECKLAPPA GALE EExecutive ChairmanMay 22Option Exercise41.0340,0001,641,000241,325May 23 05:36 PM
WECKLAPPA GALE EExecutive ChairmanMay 21Option Exercise41.0356,1162,302,159257,441May 23 05:36 PM
WECKLAPPA GALE EExecutive ChairmanMay 21Sale81.5856,1164,578,217201,325May 23 05:36 PM
WECKLAPPA GALE EExecutive ChairmanMay 22Sale81.6240,0003,264,800201,325May 23 05:36 PM
DATASelipsky AdamPresident and CEOMay 21Sale118.462,833335,585233,328May 23 05:35 PM
TSCSeidel Richard B.DirectorMay 21Buy25.002,00050,0002,000May 23 05:35 PM
BSTCChao Jennifer MDirectorMay 22Option Exercise37.648,000301,1209,313May 23 05:34 PM
CVNAGARCIA ERNEST C. II10% OwnerMay 21Sale67.63165,82311,214,9211,004,007May 23 05:33 PM
CVNAGARCIA ERNEST C. II10% OwnerMay 22Sale65.23228,84014,927,239775,167May 23 05:33 PM
TSCDolan James J.DirectorMay 21Buy25.004,000100,0004,000May 23 05:32 PM
RSTGALINDO SONIAGeneral Counsel & SecretaryMay 22Sale23.914,496107,49970,274May 23 05:30 PM
CCFCHASE PETER RExecutive ChairmanMay 23Sale100.192,000200,37195,305May 23 05:29 PM
TSCCasey Helen HannaDirectorMay 21Buy25.0020,000500,00020,000May 23 05:28 PM
ARRYSandor VictorChief Medical OfficerMay 21Option Exercise3.6512,60045,990250,292May 23 05:26 PM
ARRYSandor VictorChief Medical OfficerMay 21Sale26.5012,600333,900237,692May 23 05:26 PM
RSTPIERNO THOMAS MChief Financial OfficerMay 23Option Exercise11.9631,070371,597153,844May 23 05:25 PM
RSTPIERNO THOMAS MChief Financial OfficerMay 23Sale24.0531,070747,234122,774May 23 05:25 PM
RSTPIERNO THOMAS MChief Financial OfficerMay 22Sale23.9180,2931,919,806122,774May 23 05:25 PM
IEXSALLIOTTE DANIEL JSVP - MERGERS & ACQUISITIONSMay 21Option Exercise50.457,125359,45644,545May 23 05:24 PM
IEXSALLIOTTE DANIEL JSVP - MERGERS & ACQUISITIONSMay 21Sale153.067,1251,090,58337,420May 23 05:24 PM
TDWDay Randee EDirectorMay 22Buy24.952,50062,37419,641May 23 05:18 PM
FFIVFOUNTAIN THOMAS DEANEVP and Chief Strategy OfficerMay 21Sale140.618812,3741,641May 23 05:18 PM
AGYSBermuda One Fund LLC10% OwnerMay 21Sale22.4915,000337,3502,629,100May 23 05:18 PM
AGYSBermuda One Fund LLC10% OwnerMay 22Sale22.557,200162,3602,621,900May 23 05:18 PM
AGYSBermuda One Fund LLC10% OwnerMay 23Sale22.3011,000245,3002,610,900May 23 05:18 PM
AAWWWULFF JOHN KDirectorMay 21Buy39.755,000198,75024,979May 23 05:16 PM
FISVYABUKI JEFFERY WPresident and CEOMay 21Sale88.952,000177,900345,050May 23 05:16 PM
BSTCWegman Mark NDirectorMay 22Sale63.701,20076,44073,072May 23 05:13 PM
TPXDilsaver Evelyn SDirectorMay 21Option Exercise24.571,16628,65323,152May 23 05:09 PM
TPXDilsaver Evelyn SDirectorMay 21Sale62.3146428,91222,346May 23 05:09 PM
WMCTrifon HarrisChief Investment OfficerMay 23Buy10.053,50035,1739,303May 23 05:09 PM
CCICollins Robert SeanVice President and ControllerMay 21Sale125.191,200150,2231,616May 23 05:08 PM
REXRKhan AdeelChief Financial OfficerMay 23Sale38.0040,0001,520,0000May 23 05:07 PM
LGLFERRANTINO MICHAEL JCEOMay 21Sale9.302,90026,96972,688May 23 05:03 PM
KNLCogan Andrew BChairman and CEOMay 21Sale21.062,77458,420533,018May 23 05:03 PM
PEGAPYLE MICHAEL RSenior VP, EngineeringMay 21Option Exercise15.8225,272399,76124,418May 23 05:02 PM
TRNMadison Brian DPresident, TILCMay 22Sale20.902,15745,08158,345May 23 05:01 PM
LADRMcCormack PamelaPresidentMay 22Buy16.031,60025,648523,965May 23 05:00 PM
open in screener